SWR458 LSZH-EGPH

Flight info

Callsign SWR458
Flight time 1h 42m
Altitude 40000
Route VEBIT T10 TORPA DCT REKLA DCT RLP DCT ROTSI DCT KOTUN DCT AMAXA DCT VESAN DCT RATUK DCT SOVAT L613 LEHOC DCT INPIP
Aircraft A359/H-SDE2E3GHIJ3J4J5LM1ORWXY/LB1D1

Departure

Time 2026-05-01 10:25
Airport Zürich Airport (LSZH)

Arrival

Time 2026-05-01 12:08
Airport Edinburgh Airport (EGPH)
Time Latitude Longitude Altitude Speed Heading
2026-05-01 10:01 47.46041 8.55527 1403 ft 0 kts
2026-05-01 10:15 47.46040 8.55527 1403 ft 2 kts
2026-05-01 10:15 47.46024 8.55525 1403 ft 2 kts
2026-05-01 10:15 47.46008 8.55522 1411 ft 2 kts
2026-05-01 10:15 47.45992 8.55520 1412 ft 2 kts 14°
2026-05-01 10:16 47.45977 8.55510 1409 ft 2 kts 46°
2026-05-01 10:16 47.45969 8.55490 1412 ft 2 kts 77°
2026-05-01 10:16 47.45968 8.55471 1408 ft 0 kts 97°
2026-05-01 10:20 47.45967 8.55481 1412 ft 2 kts 97°
2026-05-01 10:20 47.45963 8.55532 1410 ft 8 kts 96°
2026-05-01 10:20 47.45956 8.55629 1403 ft 11 kts 96°
2026-05-01 10:21 47.45948 8.55745 1407 ft 12 kts 96°
2026-05-01 10:21 47.45929 8.56005 1413 ft 14 kts 96°
2026-05-01 10:21 47.45919 8.56154 1416 ft 15 kts 95°
2026-05-01 10:22 47.45862 8.56462 1414 ft 18 kts 134°
2026-05-01 10:22 47.45799 8.56592 1411 ft 9 kts 104°
2026-05-01 10:23 47.45789 8.56705 1412 ft 13 kts 95°
2026-05-01 10:23 47.45767 8.56969 1405 ft 12 kts 109°
2026-05-01 10:23 47.45703 8.57046 1409 ft 12 kts 172°
2026-05-01 10:24 47.45663 8.56959 1411 ft 0 kts 276°
2026-05-01 10:24 47.45665 8.56942 1409 ft 9 kts 276°
2026-05-01 10:25 47.45780 8.55208 1442 ft 165 kts 278°
2026-05-01 10:25 47.46048 8.51670 3166 ft 193 kts 278°
2026-05-01 10:26 47.46224 8.49595 3594 ft 218 kts 271°
2026-05-01 10:26 47.45798 8.47346 4043 ft 238 kts 236°
2026-05-01 10:26 47.43575 8.43407 5549 ft 259 kts 231°
2026-05-01 10:27 47.41327 8.39178 7400 ft 268 kts 232°
2026-05-01 10:27 47.39027 8.34596 9130 ft 287 kts 236°
2026-05-01 10:28 47.38028 8.32014 10123 ft 292 kts 240°
2026-05-01 10:28 47.36043 8.26420 11298 ft 331 kts 241°
2026-05-01 10:28 47.34948 8.23328 11868 ft 347 kts 242°
2026-05-01 10:29 47.33060 8.18000 13272 ft 358 kts 242°
2026-05-01 10:29 47.31511 8.13649 14399 ft 366 kts 242°
2026-05-01 10:30 47.29125 8.06931 15995 ft 375 kts 241°
2026-05-01 10:30 47.27394 8.01030 17295 ft 384 kts 256°
2026-05-01 10:31 47.27361 7.93121 18859 ft 393 kts 276°
2026-05-01 10:31 47.28327 7.83766 20623 ft 401 kts 280°
2026-05-01 10:32 47.29228 7.75580 22151 ft 408 kts 279°
2026-05-01 10:32 47.29515 7.72778 22656 ft 411 kts 279°
2026-05-01 10:32 47.30372 7.64431 24078 ft 418 kts 283°
2026-05-01 10:33 47.31925 7.56105 25272 ft 425 kts 288°
2026-05-01 10:33 47.34023 7.46365 26636 ft 434 kts 289°
2026-05-01 10:34 47.34655 7.43492 27001 ft 437 kts 289°
2026-05-01 10:34 47.35596 7.39205 27576 ft 441 kts 289°
2026-05-01 10:34 47.36539 7.34887 28190 ft 444 kts 289°
2026-05-01 10:35 47.38420 7.26194 29307 ft 451 kts 289°
2026-05-01 10:35 47.39373 7.21760 29847 ft 455 kts 289°
2026-05-01 10:35 47.40322 7.17293 30347 ft 459 kts 288°
2026-05-01 10:35 47.41106 7.12704 30794 ft 463 kts 284°
2026-05-01 10:36 47.42531 7.03360 31585 ft 470 kts 283°
2026-05-01 10:36 47.43224 6.98621 31992 ft 473 kts 283°
2026-05-01 10:36 47.43906 6.93917 32416 ft 476 kts 282°
2026-05-01 10:37 47.44597 6.89129 32839 ft 478 kts 282°
2026-05-01 10:37 47.45993 6.79459 33590 ft 484 kts 282°
2026-05-01 10:37 47.46697 6.74578 33931 ft 487 kts 282°
2026-05-01 10:38 47.47404 6.69671 34291 ft 489 kts 282°
2026-05-01 10:38 47.47977 6.64706 34597 ft 491 kts 277°
2026-05-01 10:38 47.48398 6.59690 34955 ft 491 kts 276°
2026-05-01 10:38 47.48782 6.54678 35377 ft 490 kts 276°
2026-05-01 10:39 47.49145 6.49663 35744 ft 490 kts 276°
2026-05-01 10:39 47.49492 6.44733 36179 ft 488 kts 276°
2026-05-01 10:39 47.49838 6.39754 36634 ft 485 kts 276°
2026-05-01 10:39 47.50182 6.34797 36983 ft 485 kts 276°
2026-05-01 10:40 47.50525 6.29835 37308 ft 485 kts 276°
2026-05-01 10:40 47.50868 6.24880 37696 ft 484 kts 275°
2026-05-01 10:40 47.51210 6.19939 38073 ft 483 kts 275°
2026-05-01 10:40 47.51549 6.14998 38390 ft 483 kts 275°
2026-05-01 10:41 47.51886 6.10066 38694 ft 483 kts 275°
2026-05-01 10:41 47.52222 6.05121 38987 ft 482 kts 275°
2026-05-01 10:41 47.52898 5.95334 39517 ft 480 kts 277°
2026-05-01 10:42 47.53539 5.90491 39712 ft 480 kts 285°
2026-05-01 10:42 47.54641 5.85832 39922 ft 480 kts 294°
2026-05-01 10:42 47.56226 5.81471 40063 ft 482 kts 303°
2026-05-01 10:42 47.58261 5.77520 40225 ft 483 kts 310°
2026-05-01 10:43 47.60479 5.73756 40272 ft 487 kts 312°
2026-05-01 10:43 47.65091 5.66351 40266 ft 489 kts 313°
2026-05-01 10:44 47.69685 5.59041 40269 ft 487 kts 313°
2026-05-01 10:44 47.74275 5.51647 40264 ft 487 kts 313°
2026-05-01 10:45 47.78852 5.44207 40269 ft 489 kts 312°
2026-05-01 10:45 47.83435 5.36725 40265 ft 488 kts 312°
2026-05-01 10:46 47.88007 5.29246 40262 ft 488 kts 312°
2026-05-01 10:46 47.92550 5.21799 40257 ft 490 kts 312°
2026-05-01 10:47 47.97129 5.14267 40261 ft 491 kts 312°
2026-05-01 10:47 48.01708 5.06703 40255 ft 489 kts 311°
2026-05-01 10:48 48.06266 4.99157 40255 ft 490 kts 311°
2026-05-01 10:48 48.10795 4.91641 40249 ft 490 kts 311°
2026-05-01 10:49 48.15356 4.84051 40253 ft 491 kts 312°
2026-05-01 10:49 48.19921 4.76431 40250 ft 491 kts 312°
2026-05-01 10:50 48.24478 4.68805 40251 ft 490 kts 311°
2026-05-01 10:50 48.29029 4.61168 40245 ft 491 kts 311°
2026-05-01 10:51 48.33548 4.53566 40249 ft 491 kts 311°
2026-05-01 10:51 48.38093 4.45884 40249 ft 491 kts 311°
2026-05-01 10:52 48.42626 4.38201 40247 ft 491 kts 311°
2026-05-01 10:52 48.47161 4.30500 40253 ft 491 kts 311°
2026-05-01 10:53 48.51660 4.22838 40259 ft 492 kts 310°
2026-05-01 10:53 48.56190 4.15099 40261 ft 492 kts 310°
2026-05-01 10:54 48.60713 4.07348 40262 ft 492 kts 310°
2026-05-01 10:54 48.65241 3.99565 40261 ft 493 kts 310°
2026-05-01 10:55 48.69764 3.91769 40259 ft 493 kts 310°
2026-05-01 10:55 48.74735 3.84750 40259 ft 493 kts 322°
2026-05-01 10:56 48.80249 3.78533 40256 ft 494 kts 323°
2026-05-01 10:56 48.85836 3.72453 40251 ft 494 kts 324°
2026-05-01 10:57 48.91422 3.66371 40249 ft 494 kts 323°
2026-05-01 10:57 48.96959 3.60295 40249 ft 494 kts 323°
2026-05-01 10:58 49.02528 3.54152 40252 ft 494 kts 323°
2026-05-01 10:58 49.08088 3.47999 40247 ft 494 kts 323°
2026-05-01 10:59 49.13652 3.41825 40244 ft 495 kts 323°
2026-05-01 10:59 49.19219 3.35631 40241 ft 495 kts 323°
2026-05-01 11:00 49.24740 3.29472 40241 ft 495 kts 323°
2026-05-01 11:00 49.30295 3.23256 40244 ft 495 kts 323°
2026-05-01 11:01 49.35848 3.17024 40241 ft 495 kts 323°
2026-05-01 11:01 49.41398 3.10778 40241 ft 495 kts 323°
2026-05-01 11:02 49.46943 3.04521 40239 ft 495 kts 323°
2026-05-01 11:02 49.52454 2.98283 40230 ft 495 kts 323°
2026-05-01 11:03 49.58000 2.91988 40230 ft 495 kts 323°
2026-05-01 11:03 49.63539 2.85682 40229 ft 495 kts 323°
2026-05-01 11:04 49.69074 2.79363 40224 ft 495 kts 323°
2026-05-01 11:04 49.74568 2.73073 40224 ft 495 kts 323°
2026-05-01 11:05 49.80107 2.66744 40227 ft 495 kts 323°
2026-05-01 11:05 49.85711 2.60536 40227 ft 495 kts 324°
2026-05-01 11:06 49.91323 2.54348 40225 ft 495 kts 324°
2026-05-01 11:06 49.96892 2.48160 40236 ft 495 kts 323°
2026-05-01 11:07 50.05275 2.38777 40233 ft 495 kts 323°
2026-05-01 11:07 50.10860 2.32500 40231 ft 495 kts 323°
2026-05-01 11:08 50.16442 2.26209 40231 ft 495 kts 323°
2026-05-01 11:09 50.24824 2.16727 40227 ft 496 kts 323°
2026-05-01 11:09 50.30373 2.10427 40224 ft 496 kts 323°
2026-05-01 11:10 50.38736 2.00866 40223 ft 496 kts 321°
2026-05-01 11:10 50.43986 1.93877 40224 ft 495 kts 317°
2026-05-01 11:11 50.49091 1.86629 40216 ft 495 kts 317°
2026-05-01 11:11 50.54198 1.79482 40212 ft 495 kts 317°
2026-05-01 11:12 50.59377 1.72342 40211 ft 495 kts 317°
2026-05-01 11:12 50.64561 1.65214 40226 ft 495 kts 317°
2026-05-01 11:13 50.69742 1.58075 40224 ft 494 kts 317°
2026-05-01 11:13 50.74905 1.50915 40224 ft 494 kts 317°
2026-05-01 11:14 50.80030 1.43776 40225 ft 494 kts 317°
2026-05-01 11:14 50.85156 1.36627 40229 ft 494 kts 317°
2026-05-01 11:15 50.90297 1.29446 40232 ft 494 kts 317°
2026-05-01 11:15 50.95449 1.22224 40235 ft 494 kts 317°
2026-05-01 11:16 51.00593 1.14990 40236 ft 494 kts 317°
2026-05-01 11:16 51.05722 1.07828 40232 ft 494 kts 320°
2026-05-01 11:17 51.11284 1.01376 40232 ft 495 kts 323°
2026-05-01 11:17 51.16933 0.95096 40228 ft 495 kts 324°
2026-05-01 11:18 51.22602 0.88831 40182 ft 496 kts 324°
2026-05-01 11:18 51.28263 0.82543 40174 ft 496 kts 324°
2026-05-01 11:19 51.33874 0.76278 40207 ft 496 kts 323°
2026-05-01 11:19 51.39535 0.69934 40207 ft 497 kts 323°
2026-05-01 11:20 51.45190 0.63577 40210 ft 497 kts 323°
2026-05-01 11:20 51.50847 0.57199 40210 ft 497 kts 323°
2026-05-01 11:21 51.56457 0.50854 40209 ft 497 kts 323°
2026-05-01 11:21 51.62105 0.44448 40207 ft 497 kts 323°
2026-05-01 11:22 51.67759 0.38013 40195 ft 498 kts 323°
2026-05-01 11:22 51.73401 0.31572 40202 ft 498 kts 323°
2026-05-01 11:23 51.79065 0.25087 40211 ft 498 kts 323°
2026-05-01 11:23 51.84670 0.18648 40212 ft 498 kts 323°
2026-05-01 11:24 51.90310 0.12150 40212 ft 498 kts 323°
2026-05-01 11:25 51.98762 0.02372 40199 ft 498 kts 323°
2026-05-01 11:25 52.07571 -0.06436 40174 ft 499 kts 330°
2026-05-01 11:26 52.16744 -0.14501 40174 ft 500 kts 330°
2026-05-01 11:27 52.22867 -0.19863 40160 ft 500 kts 330°
2026-05-01 11:27 52.28991 -0.25257 40160 ft 500 kts 330°
2026-05-01 11:28 52.35109 -0.30666 40157 ft 500 kts 330°
2026-05-01 11:28 52.41185 -0.36066 40156 ft 500 kts 330°
2026-05-01 11:29 52.50363 -0.44258 40164 ft 500 kts 330°
2026-05-01 11:30 52.59186 -0.52165 40155 ft 500 kts 330°
2026-05-01 11:30 52.65266 -0.57634 40164 ft 500 kts 329°
2026-05-01 11:31 52.71333 -0.63109 40151 ft 500 kts 329°
2026-05-01 11:31 52.77381 -0.68584 40172 ft 500 kts 329°
2026-05-01 11:32 52.83472 -0.74115 40177 ft 500 kts 329°
2026-05-01 11:32 52.89567 -0.79669 40174 ft 500 kts 329°
2026-05-01 11:33 52.95618 -0.85201 40175 ft 500 kts 329°
2026-05-01 11:33 53.01702 -0.90779 40173 ft 500 kts 329°
2026-05-01 11:34 53.07792 -0.96372 40162 ft 500 kts 329°
2026-05-01 11:34 53.13872 -1.01982 40170 ft 500 kts 329°
2026-05-01 11:35 53.19954 -1.07614 40158 ft 500 kts 329°
2026-05-01 11:35 53.26036 -1.13261 40160 ft 500 kts 329°
2026-05-01 11:36 53.32140 -1.18946 40157 ft 505 kts 329°
2026-05-01 11:36 53.38243 -1.24651 40155 ft 507 kts 329°
2026-05-01 11:37 53.44395 -1.30415 40151 ft 507 kts 329°
2026-05-01 11:37 53.50546 -1.36210 40152 ft 507 kts 329°
2026-05-01 11:38 53.56693 -1.42030 40154 ft 507 kts 329°
2026-05-01 11:38 53.62789 -1.47818 40155 ft 507 kts 329°
2026-05-01 11:39 53.68930 -1.53665 40153 ft 507 kts 329°
2026-05-01 11:39 53.74783 -1.60206 40165 ft 503 kts 317°
2026-05-01 11:40 53.80052 -1.67971 40157 ft 502 kts 316°
2026-05-01 11:40 53.85212 -1.75924 40158 ft 502 kts 315°
2026-05-01 11:41 53.90319 -1.83864 40157 ft 502 kts 315°
2026-05-01 11:41 53.95468 -1.91868 40151 ft 502 kts 315°
2026-05-01 11:42 54.00633 -1.99832 40144 ft 502 kts 318°
2026-05-01 11:42 54.06480 -2.06385 40148 ft 504 kts 327°
2026-05-01 11:43 54.12514 -2.12488 40144 ft 504 kts 327°
2026-05-01 11:43 54.18511 -2.18533 40142 ft 504 kts 327°
2026-05-01 11:44 54.27548 -2.27665 40136 ft 503 kts 327°
2026-05-01 11:44 54.30544 -2.30701 39737 ft 498 kts 327°
2026-05-01 11:44 54.33521 -2.33724 39003 ft 500 kts 327°
2026-05-01 11:45 54.36521 -2.36775 38072 ft 502 kts 327°
2026-05-01 11:45 54.39526 -2.39838 37158 ft 504 kts 327°
2026-05-01 11:45 54.42545 -2.42919 36238 ft 505 kts 327°
2026-05-01 11:45 54.45529 -2.45969 35406 ft 507 kts 327°
2026-05-01 11:46 54.48559 -2.49072 34599 ft 507 kts 327°
2026-05-01 11:46 54.51585 -2.52176 33700 ft 507 kts 327°
2026-05-01 11:46 54.54620 -2.55294 32835 ft 507 kts 327°
2026-05-01 11:46 54.57626 -2.58387 32264 ft 500 kts 327°
2026-05-01 11:47 54.60598 -2.61450 31677 ft 495 kts 327°
2026-05-01 11:47 54.63538 -2.64486 31086 ft 491 kts 327°
2026-05-01 11:47 54.66457 -2.67507 30483 ft 487 kts 327°
2026-05-01 11:47 54.69314 -2.70467 29871 ft 484 kts 327°
2026-05-01 11:48 54.72225 -2.73489 29233 ft 479 kts 327°
2026-05-01 11:48 54.75029 -2.76405 28641 ft 475 kts 326°
2026-05-01 11:48 54.77842 -2.79335 28084 ft 470 kts 326°
2026-05-01 11:48 54.80629 -2.82243 27511 ft 466 kts 326°
2026-05-01 11:49 54.83393 -2.85132 26953 ft 462 kts 326°
2026-05-01 11:49 54.86132 -2.87996 26388 ft 458 kts 326°
2026-05-01 11:49 54.88962 -2.90532 25806 ft 457 kts 334°
2026-05-01 11:49 54.91879 -2.92701 25172 ft 455 kts 335°
2026-05-01 11:50 54.94802 -2.94804 24540 ft 454 kts 335°
2026-05-01 11:50 54.97679 -2.96873 23919 ft 453 kts 335°
2026-05-01 11:50 55.00583 -2.98970 23221 ft 451 kts 335°
2026-05-01 11:50 55.03462 -3.01057 22562 ft 447 kts 335°
2026-05-01 11:51 55.06319 -3.03133 21956 ft 442 kts 335°
2026-05-01 11:51 55.09148 -3.05192 21345 ft 438 kts 335°
2026-05-01 11:51 55.11941 -3.07231 20733 ft 434 kts 335°
2026-05-01 11:51 55.14720 -3.09262 20129 ft 431 kts 335°
2026-05-01 11:52 55.17481 -3.11279 19497 ft 429 kts 335°
2026-05-01 11:52 55.20182 -3.13262 18851 ft 427 kts 335°
2026-05-01 11:52 55.22915 -3.15272 18172 ft 425 kts 334°
2026-05-01 11:52 55.25620 -3.17262 17762 ft 416 kts 334°
2026-05-01 11:53 55.28247 -3.19176 17508 ft 403 kts 336°
2026-05-01 11:53 55.30946 -3.20229 17210 ft 395 kts 356°
2026-05-01 11:53 55.33646 -3.20016 16994 ft 383 kts
2026-05-01 11:53 55.36264 -3.19559 16807 ft 372 kts
2026-05-01 11:54 55.38801 -3.19111 16605 ft 361 kts
2026-05-01 11:54 55.41275 -3.18692 16272 ft 354 kts
2026-05-01 11:54 55.43683 -3.18296 15874 ft 352 kts
2026-05-01 11:54 55.46112 -3.17906 15461 ft 349 kts
2026-05-01 11:55 55.48519 -3.17524 15054 ft 346 kts
2026-05-01 11:55 55.50908 -3.17146 14654 ft 344 kts
2026-05-01 11:55 55.53285 -3.16771 14252 ft 341 kts
2026-05-01 11:55 55.55641 -3.16399 13802 ft 338 kts
2026-05-01 11:56 55.57962 -3.16034 13028 ft 333 kts
2026-05-01 11:56 55.60271 -3.15670 12207 ft 332 kts
2026-05-01 11:56 55.62527 -3.15314 11420 ft 329 kts
2026-05-01 11:56 55.64794 -3.14956 10649 ft 326 kts
2026-05-01 11:57 55.67042 -3.14602 9927 ft 322 kts
2026-05-01 11:57 55.69262 -3.14240 9184 ft 317 kts
2026-05-01 11:57 55.71380 -3.13671 8808 ft 300 kts 11°
2026-05-01 11:57 55.73359 -3.12705 8254 ft 292 kts 19°
2026-05-01 11:58 55.75255 -3.11480 7648 ft 287 kts 20°
2026-05-01 11:58 55.77108 -3.10221 7047 ft 283 kts 20°
2026-05-01 11:58 55.80683 -3.07780 6253 ft 270 kts 20°
2026-05-01 11:59 55.82415 -3.06596 6091 ft 263 kts 20°
2026-05-01 11:59 55.84111 -3.05440 5940 ft 260 kts 19°
2026-05-01 11:59 55.85844 -3.04560 5704 ft 258 kts 10°
2026-05-01 12:00 55.89340 -3.03417 5299 ft 254 kts
2026-05-01 12:00 55.91080 -3.02864 5137 ft 253 kts
2026-05-01 12:00 55.94500 -3.01882 4838 ft 240 kts 360°
2026-05-01 12:01 55.96108 -3.02036 4661 ft 230 kts 351°
2026-05-01 12:01 55.97675 -3.02379 4523 ft 225 kts 350°
2026-05-01 12:01 55.99217 -3.02728 4251 ft 223 kts 350°
2026-05-01 12:01 56.00752 -3.03085 3952 ft 223 kts 350°
2026-05-01 12:02 56.02291 -3.03453 3651 ft 222 kts 350°
2026-05-01 12:02 56.03772 -3.04152 3350 ft 219 kts 332°
2026-05-01 12:02 56.05068 -3.05529 3045 ft 215 kts 315°
2026-05-01 12:02 56.05666 -3.07750 2999 ft 189 kts 269°
2026-05-01 12:03 56.05224 -3.09816 3003 ft 179 kts 227°
2026-05-01 12:03 56.04375 -3.11377 2980 ft 175 kts 224°
2026-05-01 12:03 56.03591 -3.12889 2979 ft 156 kts 227°
2026-05-01 12:03 56.02940 -3.14342 2977 ft 145 kts 231°
2026-05-01 12:04 56.02373 -3.15780 2965 ft 140 kts 233°
2026-05-01 12:04 56.01835 -3.17221 2759 ft 138 kts 234°
2026-05-01 12:04 56.01313 -3.18639 2501 ft 137 kts 234°
2026-05-01 12:04 56.00796 -3.20061 2218 ft 136 kts 235°
2026-05-01 12:05 56.00316 -3.21504 1973 ft 135 kts 238°
2026-05-01 12:05 55.99358 -3.24376 1485 ft 136 kts 238°
2026-05-01 12:05 55.98874 -3.25817 1307 ft 135 kts 238°
2026-05-01 12:06 55.98390 -3.27253 1166 ft 135 kts 238°
2026-05-01 12:06 55.97898 -3.28690 1019 ft 135 kts 238°
2026-05-01 12:06 55.97413 -3.30123 803 ft 134 kts 239°
2026-05-01 12:06 55.96929 -3.31549 629 ft 135 kts 239°
2026-05-01 12:07 55.96443 -3.32991 433 ft 136 kts 239°
2026-05-01 12:07 55.95954 -3.34432 267 ft 136 kts 239°
2026-05-01 12:07 55.95466 -3.35871 115 ft 135 kts 239°
2026-05-01 12:07 55.95050 -3.37104 111 ft 93 kts 239°
2026-05-01 12:08 55.94836 -3.37740 115 ft 28 kts 239°
2026-05-01 12:08 55.94755 -3.37979 118 ft 19 kts 237°
2026-05-01 12:08 55.94641 -3.38001 115 ft 20 kts 152°
2026-05-01 12:08 55.94604 -3.37851 115 ft 14 kts 65°
2026-05-01 12:09 55.94653 -3.37694 115 ft 16 kts 59°
2026-05-01 12:09 55.94717 -3.37507 115 ft 13 kts 57°
2026-05-01 12:09 55.94773 -3.37348 112 ft 18 kts 59°
2026-05-01 12:09 55.94846 -3.37132 108 ft 22 kts 59°
2026-05-01 12:10 55.94895 -3.36987 107 ft 14 kts 59°
2026-05-01 12:10 55.94886 -3.36804 109 ft 9 kts 142°
2026-05-01 12:10 55.94817 -3.36781 111 ft 8 kts 175°
2026-05-01 12:11 55.94753 -3.36647 108 ft 6 kts 92°
2026-05-01 12:11 55.94753 -3.36627 109 ft 0 kts 91°